Regional Weather Roundup
Issued by NWS State College, PA

Home | Current Version | Previous Version | Graphics & Text | Print | Product List | Glossary On
Versions: 1 2 3 4 5 6 7 8 9 10 11 12 13 14 15 16 17 18 19 20 21 22 23 24 25 26 27 28 29 30 31 32 33 34 35 36 37 38 39 40 41 42 43 44 45 46 47 48 49 50
000
ASUS41 KCTP 070410
RWRCTP

REGIONAL WEATHER ROUNDUP
NATIONAL WEATHER SERVICE STATE COLLEGE PA
1200 AM EDT TUE JUL 07 2015

Note: "fair" indicates few or no clouds below 12,000 feet with no
significant weather and/or obstructions to visibility.

* = STATION THAT DOES NOT REPORT PRECIPITATION /E.G. RAIN...SNOW...ETC/
    THUNDER OR FOG.

PAZ002>004-007>009-013>016-020>023-029>032-070500-
WESTERN PENNSYLVANIA

CITY           SKY/WX    TMP DP  RH WIND       PRES   REMARKS
ERIE           CLEAR     71  63  75 CALM      29.97F
MEADVILLE      CLEAR     69  65  86 VRB3      30.01F
FRANKLIN*      CLOUDY    70  64  83 S6        30.04F
NEW CASTLE     FAIR      70  70 100 CALM      30.03F
BEAVER COUNTY  NOT AVBL
BUTLER*        FAIR      68  66  94 W5        30.05R
PITTSBURGH INT FAIR      70  67  90 CALM      30.03S
PITTSBURGH     CLEAR     68  64  87 SW7       30.03S
INDIANA*       MOCLDY    70  70 100 CALM      30.06F
LATROBE        NOT AVBL
WASHINGTON CO* NOT AVBL
$$

PAZ004>006-010>012-017>019-024>028-033>037-041-042-045-046-049>053-070500-
CENTRAL PENNSYLVANIA

CITY           SKY/WX    TMP DP  RH WIND       PRES   REMARKS
BRADFORD       PTCLDY    67  65  93 CALM      30.06F
DUBOIS         PTCLDY    70  66  87 SE6       30.04F
CLEARFIELD     MOCLDY    68  66  93 N3        30.05F FOG
JOHNSTOWN      LGT RAIN  68  66  93 SW6       30.08S
ALTOONA        PTCLDY    66  64  93 CALM      30.06F
STATE COLLEGE  CLOUDY    70  68  93 SW5       30.04F
WILLIAMSPORT   MOCLDY    76  68  76 SE8       30.01S
SELINSGROVE    CLOUDY    74  71  91 CALM      30.03S
FT INDIANTOWN  CLOUDY    72  71  96 NE2       30.04S
CAPITAL CITY   CLOUDY    74  69  85 E3        30.02F
HARRISBURG     MOCLDY    74  70  87 CALM      30.01F
YORK           CLEAR     71  69  93 VRB5      30.03F
$$

PAZ038>040-043-044-047-048-054-055-060>062-067>071-070500-
EASTERN PENNSYLVANIA

CITY           SKY/WX    TMP DP  RH WIND       PRES   REMARKS
SCRANTON       CLOUDY    76  68  76 CALM      30.07S
MOUNT POCONO   LGT RAIN  68  32  26 SE8       30.13F VSB 1/4
ALLENTOWN      MOCLDY    74  71  91 E5        30.07S
QUAKERTOWN*    MOCLDY    73  72  94 SE6       30.08S
READING        MOCLDY    75  71  87 SE8       30.03F
LANCASTER      LGT RAIN  73  71  93 S8        30.04F FOG
COATESVILLE    CLOUDY    73  73 100 SE8       30.07F FOG
POTTSTOWN      MOCLDY    74  72  93 CALM      30.07F
BLUE BELL      MOCLDY    77  72  83 CALM      30.06S
DOYLESTOWN     PTCLDY    73  71  93 SE6       30.07F
WILLOW GROVE   NOT AVBL
NORTH PHILA    MOCLDY    77  70  79 SE7       30.08F
PHILADELPHIA   CLOUDY    77  72  84 SE7       30.06F
$$



USA.gov is the U.S. government's official web portal to all federal, state and local government web resources and services.